FW1348 Weather Reports


Display with metric or nautical units.
time (UTC)temp
F
wind
direction
speed
MPH
gust
MPH
rain 1hr
in
rain 24hr
in
rain mn
in
humidity
%
barometer
mb
20200403081034 49 330 0.0 0.0 0.00 0.00 0.00 64 1015.8
20200403080524 49 347 0.0 0.0 0.00 0.00 0.00 65 1015.7
20200403080014 49 347 0.0 1.0 0.00 0.00 0.00 65 1015.7
20200403075505 49 347 0.0 1.0 0.00 0.00 0.00 64 1015.7
20200403074954 50 350 0.0 1.0 0.00 0.00 0.00 64 1015.7
20200403074444 50 350 0.0 2.0 0.00 0.00 0.00 63 1015.7
20200403073933 50 349 0.0 2.0 0.00 0.00 0.00 63 1015.7
20200403073424 51 350 0.0 2.0 0.00 0.00 0.00 62 1015.7
20200403072914 51 354 0.0 2.0 0.00 0.00 0.00 61 1015.9
20200403072404 51 328 0.0 1.0 0.00 0.00 0.00 61 1015.9
20200403071855 51 328 0.0 1.0 0.00 0.00 0.00 61 1015.9
20200403071344 51 342 0.0 2.0 0.00 0.00 0.00 61 1015.8
20200403070832 51 342 0.0 2.0 0.00 0.00 0.00 61 1015.9
20200403070323 51 304 0.0 2.0 0.00 0.00 0.00 61 1016.0
20200403065813 52 295 1.0 3.0 0.00 0.00 0.00 60 1015.9
20200403065302 52 350 1.0 3.0 0.00 0.00 0.00 60 1015.8
20200403064752 51 349 0.0 3.0 0.00 0.00 0.00 60 1015.9
20200403064240 52 331 0.0 2.0 0.00 0.00 0.00 60 1015.8
20200403063730 51 99 0.0 1.0 0.00 0.00 0.00 60 1015.9
20200403063217 51 252 0.0 3.0 0.00 0.00 0.00 60 1015.8
20200403062708 51 231 0.0 3.0 0.00 0.00 0.00 60 1015.9
20200403062158 52 201 0.0 2.0 0.00 0.00 0.00 60 1015.8
20200403061648 52 143 0.0 4.0 0.00 0.00 0.00 60 1015.8
20200403061138 52 250 0.0 4.0 0.00 0.00 0.00 60 1015.9
20200403060628 52 44 1.0 7.0 0.00 0.00 0.00 60 1016.0
20200403060118 51 108 0.0 7.0 0.00 0.00 0.00 60 1016.1
20200403055609 51 188 0.0 4.0 0.00 0.00 0.00 62 1016.2
20200403055059 51 150 0.0 4.0 0.00 0.00 0.00 61 1016.2
20200403054541 51 311 0.0 2.0 0.00 0.00 0.00 62 1016.2
20200403054031 51 293 0.0 2.0 0.00 0.00 0.00 62 1016.3
20200403053522 50 332 0.0 1.0 0.00 0.00 0.00 62 1016.3
20200403053013 50 232 0.0 1.0 0.00 0.00 0.00 62 1016.3
20200403052501 50 179 0.0 1.0 0.00 0.00 0.00 63 1016.4
20200403051951 50 153 0.0 1.0 0.00 0.00 0.00 62 1016.5
20200403051442 50 262 0.0 4.0 0.00 0.00 0.00 63 1016.5
20200403050929 50 333 0.0 4.0 0.00 0.00 0.00 62 1016.6
20200403050431 50 140 0.0 2.0 0.00 0.00 0.00 63 1016.6
20200403045921 50 67 0.0 1.0 0.00 0.00 0.00 62 1016.6
20200403045411 50 198 0.0 1.0 0.00 0.00 0.00 62 1016.7
20200403044901 50 181 0.0 3.0 0.00 0.00 0.00 62 1016.8
20200403044341 50 344 0.0 3.0 0.00 0.00 0.00 62 1016.7
20200403043831 50 353 0.0 3.0 0.00 0.00 0.00 62 1016.7
20200403043321 50 353 0.0 3.0 0.00 0.00 0.00 61 1016.8
20200403042803 50 325 0.0 1.0 0.00 0.00 0.00 62 1016.7
20200403042246 50 2 0.0 1.0 0.00 0.00 0.00 62 1016.8
20200403041735 50 229 0.0 1.0 0.00 0.00 0.00 61 1016.9
20200403041226 50 171 0.0 1.0 0.00 0.00 0.00 62 1016.9
20200403040715 50 176 0.0 2.0 0.00 0.00 0.00 62 1016.9
20200403040206 50 261 0.0 3.0 0.00 0.00 0.00 61 1017.0
20200403035655 50 324 0.0 3.0 0.00 0.00 0.00 62 1017.1
20200403035139 50 349 0.0 2.0 0.00 0.00 0.00 63 1017.1
20200403034628 49 304 0.0 2.0 0.00 0.00 0.00 63 1017.1
20200403034120 49 160 0.0 1.0 0.00 0.00 0.00 64 1017.1
20200403033610 50 157 0.0 1.0 0.00 0.00 0.00 63 1017.1
20200403033108 50 215 0.0 1.0 0.00 0.00 0.00 63 1017.0
20200403032601 50 147 0.0 1.0 0.00 0.00 0.00 63 1017.1
20200403032057 49 56 0.0 1.0 0.00 0.00 0.00 64 1017.0
20200403031547 49 70 0.0 1.0 0.00 0.00 0.00 64 1016.9
20200403031034 50 307 0.0 2.0 0.00 0.00 0.00 65 1016.9
20200403030528 50 234 0.0 2.0 0.00 0.00 0.00 65 1016.9
20200403030018 50 158 0.0 2.0 0.00 0.00 0.00 65 1017.0
20200403025505 50 178 0.0 2.0 0.00 0.00 0.00 64 1017.0
20200403024952 50 167 0.0 2.0 0.00 0.00 0.00 65 1017.1
20200403024445 50 202 0.0 2.0 0.00 0.00 0.00 65 1017.0
20200403023940 50 4 0.0 1.0 0.00 0.00 0.00 66 1017.2
20200403023433 50 143 0.0 1.0 0.00 0.00 0.00 65 1017.1
20200403022934 51 219 0.0 1.0 0.00 0.00 0.00 65 1017.0
20200403022427 51 206 0.0 1.0 0.00 0.00 0.00 65 1017.2
20200403021926 51 156 0.0 1.0 0.00 0.00 0.00 64 1017.2
20200403021411 51 304 0.0 2.0 0.00 0.00 0.00 64 1017.1
20200403020905 52 181 0.0 2.0 0.00 0.00 0.00 64 1016.9
20200403020402 52 27 0.0 2.0 0.00 0.00 0.00 63 1016.9
20200403015855 52 14 0.0 2.0 0.00 0.00 0.00 62 1016.8
20200403015353 52 265 0.0 2.0 0.00 0.00 0.00 62 1016.8
20200403014850 53 279 0.0 2.0 0.00 0.00 0.00 61 1016.7
20200403014341 53 311 0.0 2.0 0.00 0.00 0.00 61 1016.7
20200403013832 53 257 0.0 2.0 0.00 0.00 0.00 61 1016.7
20200403013315 53 210 0.0 1.0 0.00 0.00 0.00 61 1016.7
20200403012807 53 153 0.0 2.0 0.00 0.00 0.00 60 1016.7
20200403012258 53 316 0.0 2.0 0.00 0.00 0.00 60 1016.7
20200403011754 54 252 0.0 1.0 0.00 0.00 0.00 59 1016.6
20200403011244 54 332 0.0 2.0 0.00 0.00 0.00 59 1016.4
20200403010734 54 285 0.0 2.0 0.00 0.00 0.00 59 1016.5
20200403010216 54 125 0.0 3.0 0.00 0.00 0.00 58 1016.3
20200403005706 54 335 0.0 2.0 0.00 0.00 0.00 58 1016.3
20200403005158 55 274 0.0 3.0 0.00 0.00 0.00 57 1016.3
20200403004646 55 276 1.0 3.0 0.00 0.00 0.00 57 1016.3
20200403004136 55 287 1.0 2.0 0.00 0.00 0.00 57 1016.3
20200403003622 56 281 0.0 2.0 0.00 0.00 0.00 57 1016.3
20200403003109 56 289 0.0 3.0 0.00 0.00 0.00 56 1016.2
20200403002605 56 283 0.0 3.0 0.00 0.00 0.00 55 1016.2
20200403002055 56 259 0.0 2.0 0.00 0.00 0.00 54 1016.2
20200403001543 57 255 0.0 2.0 0.00 0.00 0.00 53 1016.1
20200403001033 57 273 0.0 1.0 0.00 0.00 0.00 53 1016.1
20200403000522 58 261 1.0 3.0 0.00 0.00 0.00 52 1016.1
20200403000014 58 280 1.0 3.0 0.00 0.00 0.00 52 1016.0
20200402235505 58 275 0.0 3.0 0.00 0.00 0.00 52 1016.1
20200402235008 58 280 0.0 2.0 0.00 0.00 0.00 52 1016.0
20200402234454 58 202 0.0 2.0 0.00 0.00 0.00 52 1016.0
20200402233940 59 268 0.0 2.0 0.00 0.00 0.00 52 1016.1
20200402233428 59 258 0.0 2.0 0.00 0.00 0.00 51 1016.1
20200402232918 60 273 0.0 3.0 0.00 0.00 0.00 50 1016.1
20200402232408 60 283 1.0 3.0 0.00 0.00 0.00 51 1016.1
20200402231858 60 261 1.0 3.0 0.00 0.00 0.00 49 1016.1
20200402231349 61 281 1.0 3.0 0.00 0.00 0.00 48 1016.2
20200402230830 61 283 1.0 4.0 0.00 0.00 0.00 48 1016.1
20200402230320 61 287 1.0 4.0 0.00 0.00 0.00 48 1016.2
20200402225812 61 207 1.0 7.0 0.00 0.00 0.00 48 1016.1
20200402225300 62 270 1.0 8.0 0.00 0.00 0.00 47 1016.1
20200402224742 62 266 1.0 8.0 0.00 0.00 0.00 47 1016.0
20200402224232 62 290 1.0 6.0 0.00 0.00 0.00 45 1016.0
20200402223722 63 273 1.0 3.0 0.00 0.00 0.00 46 1016.1
20200402223212 63 245 2.0 6.0 0.00 0.00 0.00 45 1016.1
20200402222702 63 291 1.0 6.0 0.00 0.00 0.00 44 1016.2
20200402222152 64 311 1.0 5.0 0.00 0.00 0.00 43 1016.1
20200402221642 65 267 1.0 3.0 0.00 0.00 0.00 44 1016.1
20200402221132 65 233 1.0 3.0 0.00 0.00 0.00 44 1016.0
20200402220622 65 272 1.0 5.0 0.00 0.00 0.00 43 1016.1
20200402220112 65 296 2.0 6.0 0.00 0.00 0.00 44 1016.2
20200402215554 65 248 2.0 6.0 0.00 0.00 0.00 42 1016.2
20200402215044 65 281 2.0 9.0 0.00 0.00 0.00 43 1016.2
20200402214534 65 292 2.0 9.0 0.00 0.00 0.00 44 1016.2
20200402214024 65 342 2.0 7.0 0.00 0.00 0.00 42 1016.1
20200402213514 66 338 2.0 7.0 0.00 0.00 0.00 44 1016.1
20200402213004 67 338 2.0 5.0 0.00 0.00 0.00 42 1016.1
20200402212454 67 274 1.0 5.0 0.00 0.00 0.00 41 1016.0
20200402211944 67 237 2.0 5.0 0.00 0.00 0.00 43 1016.0
20200402211434 67 233 2.0 7.0 0.00 0.00 0.00 43 1016.0
20200402210921 66 247 2.0 7.0 0.00 0.00 0.00 43 1016.0
20200402210402 67 255 2.0 8.0 0.00 0.00 0.00 44 1016.1
20200402205852 67 257 1.0 8.0 0.00 0.00 0.00 40 1016.0
20200402205342 68 34 1.0 6.0 0.00 0.00 0.00 42 1016.0
20200402204832 67 283 2.0 6.0 0.00 0.00 0.00 40 1016.1
20200402204312 68 270 1.0 5.0 0.00 0.00 0.00 40 1016.2
20200402203752 68 277 1.0 4.0 0.00 0.00 0.00 42 1016.2
20200402203242 67 44 2.0 7.0 0.00 0.00 0.00 44 1016.2
20200402202738 67 54 2.0 5.0 0.00 0.00 0.00 41 1016.2
20200402202231 67 296 1.0 5.0 0.00 0.00 0.00 42 1016.3
20200402201723 67 287 2.0 11.0 0.00 0.00 0.00 43 1016.4
20200402201215 66 255 2.0 11.0 0.00 0.00 0.00 45 1016.4
20200402200708 67 271 2.0 8.0 0.00 0.00 0.00 43 1016.5
20200402200244 66 304 2.0 8.0 0.00 0.00 0.00 43 1016.6
20200402195655 66 22 2.0 5.0 0.00 0.00 0.00 43 1016.6
20200402195149 66 75 2.0 6.0 0.00 0.00 0.00 46 1016.6
20200402194640 66 254 2.0 6.0 0.00 0.00 0.00 44 1016.6
20200402194132 66 237 3.0 7.0 0.00 0.00 0.00 44 1016.8
20200402193626 65 290 3.0 11.0 0.00 0.00 0.00 47 1016.7
20200402193121 65 238 3.0 7.0 0.00 0.00 0.00 47 1016.9
20200402192615 65 127 3.0 7.0 0.00 0.00 0.00 47 1017.0
20200402192112 65 300 2.0 7.0 0.00 0.00 0.00 46 1017.1
20200402191608 65 90 2.0 8.0 0.00 0.00 0.00 47 1017.2
20200402191110 66 297 2.0 10.0 0.00 0.00 0.00 45 1017.2
20200402190605 65 229 2.0 10.0 0.00 0.00 0.00 45 1017.2
20200402190048 66 262 2.0 6.0 0.00 0.00 0.00 43 1017.3
20200402185542 66 252 2.0 6.0 0.00 0.00 0.00 45 1017.4
20200402185039 66 231 2.0 6.0 0.00 0.00 0.00 45 1017.3
20200402184538 66 6 2.0 7.0 0.00 0.00 0.00 49 1017.4
20200402184028 66 66 2.0 7.0 0.00 0.00 0.00 46 1017.5
20200402183522 66 262 2.0 4.0 0.00 0.00 0.00 47 1017.5
20200402183022 65 274 3.0 9.0 0.00 0.00 0.00 47 1017.5
20200402182517 64 202 3.0 9.0 0.00 0.00 0.00 48 1017.4
20200402182007 65 273 2.0 6.0 0.00 0.00 0.00 47 1017.5
20200402181501 65 44 2.0 7.0 0.00 0.00 0.00 45 1017.8
20200402180956 65 342 3.0 9.0 0.00 0.00 0.00 46 1017.7
20200402180449 65 217 3.0 9.0 0.00 0.00 0.00 50 1017.9
20200402175941 64 291 3.0 9.0 0.00 0.00 0.00 46 1017.8
20200402175428 65 342 2.0 9.0 0.00 0.00 0.00 45 1017.8
20200402174918 66 220 1.0 7.0 0.00 0.00 0.00 40 1017.9
20200402174407 65 195 2.0 5.0 0.00 0.00 0.00 45 1018.0
20200402173858 64 2 1.0 5.0 0.00 0.00 0.00 40 1018.0
20200402173347 64 54 2.0 4.0 0.00 0.00 0.00 44 1018.0
20200402172838 63 11 2.0 5.0 0.00 0.00 0.00 42 1018.0
20200402172327 64 232 2.0 5.0 0.00 0.00 0.00 45 1018.2
20200402171816 62 100 2.0 5.0 0.00 0.00 0.00 47 1018.2
20200402171315 62 228 2.0 6.0 0.00 0.00 0.00 45 1018.3
20200402170814 62 193 2.0 6.0 0.00 0.00 0.00 43 1018.2
20200402170304 62 283 2.0 6.0 0.00 0.00 0.00 45 1018.5
20200402165752 62 250 2.0 6.0 0.00 0.00 0.00 44 1018.7
20200402165241 62 311 1.0 5.0 0.00 0.00 0.00 51 1018.7
20200402164731 61 265 2.0 6.0 0.00 0.00 0.00 47 1018.8
20200402164222 61 251 3.0 6.0 0.00 0.00 0.00 47 1018.9
20200402163712 60 349 3.0 8.0 0.00 0.00 0.00 49 1018.9
20200402163211 60 277 3.0 8.0 0.00 0.00 0.00 49 1019.0
20200402162654 60 252 3.0 6.0 0.00 0.00 0.00 52 1019.1
20200402162143 61 194 1.0 5.0 0.00 0.00 0.00 51 1019.2
20200402161635 61 209 2.0 6.0 0.00 0.00 0.00 54 1019.2
20200402161121 61 252 1.0 6.0 0.00 0.00 0.00 48 1019.2
20200402160612 61 257 1.0 2.0 0.00 0.00 0.00 47 1019.2
20200402160101 61 241 1.0 3.0 0.00 0.00 0.00 47 1019.3
20200402155552 61 283 1.0 3.0 0.00 0.00 0.00 50 1019.2
20200402155041 61 103 1.0 3.0 0.00 0.00 0.00 49 1019.4
20200402154532 60 231 1.0 4.0 0.00 0.00 0.00 52 1019.6
20200402154019 58 199 1.0 4.0 0.00 0.00 0.00 52 1019.5
20200402153510 58 172 1.0 4.0 0.00 0.00 0.00 53 1019.7
20200402152957 57 227 2.0 5.0 0.00 0.00 0.00 50 1019.6
20200402152448 56 203 2.0 5.0 0.00 0.00 0.00 52 1019.7
20200402151937 56 189 2.0 6.0 0.00 0.00 0.00 54 1019.6
20200402151428 56 170 2.0 6.0 0.00 0.00 0.00 55 1019.6
20200402150917 56 236 1.0 4.0 0.00 0.00 0.00 54 1019.7
20200402150407 55 153 1.0 5.0 0.00 0.00 0.00 56 1019.7
20200402145852 55 129 2.0 6.0 0.00 0.00 0.00 53 1019.7
20200402145343 55 231 2.0 6.0 0.00 0.00 0.00 54 1019.7
20200402144823 55 20 1.0 5.0 0.00 0.00 0.00 57 1019.8
20200402144313 55 248 1.0 4.0 0.00 0.00 0.00 56 1019.8
20200402143802 55 244 2.0 4.0 0.00 0.00 0.00 56 1019.8
20200402143253 55 238 2.0 5.0 0.00 0.00 0.00 54 1019.7
20200402142743 55 129 1.0 5.0 0.00 0.00 0.00 56 1019.8
20200402142239 55 316 1.0 4.0 0.00 0.00 0.00 58 1019.8
20200402141729 54 146 2.0 4.0 0.00 0.00 0.00 59 1019.8
20200402141220 54 117 1.0 4.0 0.00 0.00 0.00 57 1019.7
20200402140707 54 157 1.0 4.0 0.00 0.00 0.00 55 1019.7
20200402140157 55 304 0.0 2.0 0.00 0.00 0.00 55 1019.8
20200402135647 54 45 0.0 3.0 0.00 0.00 0.00 56 1019.6
20200402135136 54 172 0.0 3.0 0.00 0.00 0.00 61 1019.6
20200402134626 53 352 0.0 2.0 0.00 0.00 0.00 60 1019.7
20200402134117 52 11 0.0 1.0 0.00 0.00 0.00 64 1019.7
20200402133607 51 336 1.0 2.0 0.00 0.00 0.00 64 1019.6
20200402133055 50 350 1.0 2.0 0.00 0.00 0.00 65 1019.6
20200402132545 50 317 0.0 2.0 0.00 0.00 0.00 68 1019.5
20200402132037 49 356 0.0 2.0 0.00 0.00 0.00 69 1019.5
20200402131528 48 332 1.0 3.0 0.00 0.00 0.00 75 1019.3
20200402131012 47 356 1.0 3.0 0.00 0.00 0.00 73 1019.3
20200402130503 46 342 1.0 2.0 0.00 0.00 0.00 75 1019.3
20200402125954 46 342 0.0 1.0 0.00 0.00 0.00 78 1019.4
20200402125447 44 339 0.0 1.0 0.00 0.00 0.00 81 1019.4
20200402124941 43 327 0.0 1.0 0.00 0.00 0.00 81 1019.4
20200402124433 42 319 0.0 2.0 0.00 0.00 0.00 83 1019.3
20200402123928 42 319 0.0 2.0 0.00 0.00 0.00 83 1019.2
20200402123422 41 340 0.0 0.0 0.00 0.00 0.00 84 1019.2
20200402122918 40 10 0.0 0.0 0.00 0.00 0.00 84 1019.1
20200402122409 40 337 0.0 0.0 0.00 0.00 0.00 84 1019.2
20200402121904 40 337 0.0 0.0 0.00 0.00 0.00 85 1019.0
20200402121404 40 337 0.0 0.0 0.00 0.00 0.00 85 1019.0
20200402120859 39 337 0.0 0.0 0.00 0.00 0.00 85 1019.0
20200402120353 39 337 0.0 0.0 0.00 0.00 0.00 85 1018.9
20200402115847 40 337 0.0 0.0 0.00 0.00 0.00 84 1018.8
20200402115343 40 337 0.0 0.0 0.00 0.00 0.00 84 1018.8
20200402114835 40 337 0.0 1.0 0.00 0.00 0.00 84 1018.7
20200402114322 39 337 0.0 1.0 0.00 0.00 0.00 85 1018.7
20200402113815 39 333 0.0 1.0 0.00 0.00 0.00 86 1018.7
20200402113308 39 330 0.0 0.0 0.00 0.00 0.00 86 1018.8
20200402112804 38 330 0.0 0.0 0.00 0.00 0.00 86 1018.7
20200402112252 38 330 0.0 0.0 0.00 0.00 0.00 87 1018.6
20200402111746 38 330 0.0 0.0 0.00 0.00 0.00 86 1018.5
20200402111238 38 330 0.0 0.0 0.00 0.00 0.00 87 1018.4
20200402110730 38 330 0.0 1.0 0.00 0.00 0.00 87 1018.4
20200402110218 38 330 0.0 1.0 0.00 0.00 0.00 87 1018.4
20200402105708 38 330 0.0 1.0 0.00 0.00 0.00 86 1018.4
20200402105158 38 330 0.0 1.0 0.00 0.00 0.00 86 1018.3
20200402104648 38 330 0.0 0.0 0.00 0.00 0.00 86 1018.3
20200402104138 38 330 0.0 1.0 0.00 0.00 0.00 86 1018.2
20200402103629 38 334 0.0 1.0 0.00 0.00 0.00 86 1018.2
20200402103118 39 334 0.0 0.0 0.00 0.00 0.00 86 1018.0
20200402102608 38 334 0.0 0.0 0.00 0.00 0.00 86 1017.9
20200402102059 38 334 0.0 0.0 0.00 0.00 0.00 86 1017.9
20200402101548 38 338 0.0 0.0 0.00 0.00 0.00 87 1017.7
20200402101038 38 326 0.0 1.0 0.00 0.00 0.00 86 1017.5
20200402100528 38 275 0.0 1.0 0.00 0.00 0.00 86 1017.5
20200402100018 38 347 0.0 1.0 0.00 0.00 0.00 86 1017.4
20200402095508 38 346 0.0 1.0 0.00 0.00 0.00 86 1017.2
20200402094959 39 346 0.0 1.0 0.00 0.00 0.00 86 1017.3
20200402094448 38 345 0.0 1.0 0.00 0.00 0.00 87 1017.2
20200402093938 38 344 0.0 1.0 0.00 0.00 0.00 86 1017.2
20200402093428 39 344 0.0 1.0 0.00 0.00 0.00 86 1017.1
20200402092918 39 344 0.0 1.0 0.00 0.00 0.00 86 1017.0
20200402092400 39 342 0.0 1.0 0.00 0.00 0.00 86 1017.0
20200402091339 39 342 0.0 0.0 0.00 0.00 0.00 85 1017.2
20200402090828 39 342 0.0 0.0 0.00 0.00 0.00 86 1017.0
20200402090318 39 342 0.0 0.0 0.00 0.00 0.00 86 1017.0
20200402085809 39 342 0.0 0.0 0.00 0.00 0.00 86 1017.0
20200402085258 39 342 0.0 0.0 0.00 0.00 0.00 87 1016.9
20200402084748 39 342 0.0 0.0 0.00 0.00 0.00 87 1016.9
20200402084238 39 342 0.0 0.0 0.00 0.00 0.00 86 1017.0
20200402083728 39 342 0.0 0.0 0.00 0.00 0.00 86 1016.8
20200402083224 39 342 0.0 0.0 0.00 0.00 0.00 86 1016.6
20200402082712 39 342 0.0 0.0 0.00 0.00 0.00 86 1016.7
20200402082201 40 342 0.0 1.0 0.00 0.00 0.00 86 1016.7
20200402081700 40 342 0.0 2.0 0.00 0.00 0.00 86 1016.6